When you browse on this site, cookies collect data to enhance your experience and personalize the content and advertising you see.
Visit our Privacy Policy to learn more. By continuing to use the site, you agree to this use of cookies and data.

Stündliche Wetter Tepeji de Ocampo

Heute, 5 August, Mittwoch

Zeit Temperatur Niederschläge Wind Luftdruck Luftfeuchtigkeit
00:00 +14°C° 0 mm 0 m/S 589 mmHg 94%
01:00 +14°C° 0 mm 0 m/S 589 mmHg 95%
02:00 +13°C° 0 mm 0 m/S 588 mmHg 96%
03:00 +13°C° 0 mm 0 m/S 588 mmHg 95%
04:00 +13°C° 0 mm 0 m/S 588 mmHg 95%
05:00 +13°C° 0 mm 0 m/S 588 mmHg 95%
06:00 +14°C° 0 mm 0 m/S 589 mmHg 90%
07:00 +18°C° 0 mm 1 m/S 590 mmHg 85%
08:00 +19°C° 0 mm 1 m/S 591 mmHg 81%
09:00 +21°C° 0.1 mm 1 m/S 591 mmHg 74%
10:00 +21°C° 0.1 mm 2 m/S 592 mmHg 67%
11:00 +24°C° 0.1 mm 3 m/S 592 mmHg 60%
12:00 +24°C° 0.4 mm 3 m/S 592 mmHg 59%
13:00 +25°C° 0.4 mm 4 m/S 591 mmHg 58%
14:00 +25°C° 0.4 mm 5 m/S 591 mmHg 56%
15:00 +23°C° 0.6 mm 5 m/S 590 mmHg 62%
16:00 +22°C° 0.6 mm 5 m/S 590 mmHg 68%
17:00 +21°C° 0.6 mm 5 m/S 589 mmHg 74%
18:00 +19°C° 0.7 mm 4 m/S 589 mmHg 80%
19:00 +17°C° 0.7 mm 3 m/S 589 mmHg 86%
20:00 +16°C° 0.7 mm 1 m/S 589 mmHg 92%
21:00 +15°C° 0 mm 1 m/S 589 mmHg 92%
22:00 +15°C° 0 mm 1 m/S 589 mmHg 93%
23:00 +14°C° 0 mm 0 m/S 589 mmHg 93%

Morgen, 6 August, Donnerstag

Zeit Temperatur Niederschläge Wind Luftdruck Luftfeuchtigkeit
00:00 +14°C° 0 mm 0 m/S 588 mmHg 94%
01:00 +13°C° 0 mm 0 m/S 588 mmHg 94%
02:00 +13°C° 0 mm 0 m/S 588 mmHg 95%
03:00 +15°C° 0 mm 1 m/S 588 mmHg 94%
04:00 +15°C° 0 mm 1 m/S 588 mmHg 92%
05:00 +15°C° 0 mm 1 m/S 589 mmHg 91%
06:00 +16°C° 0 mm 1 m/S 589 mmHg 88%
07:00 +16°C° 0 mm 1 m/S 589 mmHg 85%
08:00 +18°C° 0 mm 1 m/S 590 mmHg 82%
09:00 +19°C° 0 mm 1 m/S 590 mmHg 77%
10:00 +21°C° 0 mm 1 m/S 590 mmHg 72%
11:00 +21°C° 0 mm 2 m/S 591 mmHg 67%
12:00 +23°C° 0.1 mm 2 m/S 590 mmHg 64%
13:00 +22°C° 0.1 mm 3 m/S 590 mmHg 62%
14:00 +23°C° 0.1 mm 4 m/S 590 mmHg 60%
15:00 +22°C° 0.2 mm 4 m/S 590 mmHg 62%
16:00 +22°C° 0.2 mm 4 m/S 589 mmHg 65%
17:00 +21°C° 0.2 mm 4 m/S 589 mmHg 67%
18:00 +19°C° 0.2 mm 3 m/S 589 mmHg 75%
19:00 +17°C° 0.2 mm 2 m/S 589 mmHg 83%
20:00 +16°C° 0.2 mm 2 m/S 588 mmHg 92%
21:00 +15°C° 0 mm 1 m/S 589 mmHg 93%
22:00 +15°C° 0 mm 1 m/S 589 mmHg 94%
23:00 +15°C° 0 mm 1 m/S 589 mmHg 94%

übermorgen, 7 August, Freitag

Zeit Temperatur Niederschläge Wind Luftdruck Luftfeuchtigkeit
00:00 +15°C° 0 mm 1 m/S 589 mmHg 94%
01:00 +15°C° 0 mm 1 m/S 588 mmHg 94%
02:00 +15°C° 0 mm 1 m/S 588 mmHg 94%
03:00 +14°C° 0 mm 0 m/S 588 mmHg 93%
04:00 +14°C° 0 mm 0 m/S 589 mmHg 92%
05:00 +14°C° 0 mm 0 m/S 589 mmHg 92%
06:00 +16°C° 0 mm 1 m/S 589 mmHg 86%
07:00 +18°C° 0 mm 1 m/S 590 mmHg 81%
08:00 +18°C° 0 mm 2 m/S 591 mmHg 76%
09:00 +19°C° 0.1 mm 2 m/S 591 mmHg 72%
10:00 +20°C° 0.1 mm 3 m/S 591 mmHg 69%
11:00 +21°C° 0.1 mm 3 m/S 591 mmHg 65%
12:00 +22°C° 1.4 mm 3 m/S 591 mmHg 65%
13:00 +22°C° 1.4 mm 4 m/S 590 mmHg 66%
14:00 +23°C° 1.4 mm 4 m/S 590 mmHg 66%
15:00 +22°C° 1 mm 4 m/S 590 mmHg 69%
16:00 +21°C° 1 mm 4 m/S 589 mmHg 73%
17:00 +20°C° 1 mm 4 m/S 589 mmHg 76%
18:00 +19°C° 0.6 mm 4 m/S 589 mmHg 81%
19:00 +17°C° 0.6 mm 3 m/S 589 mmHg 86%
20:00 +16°C° 0.6 mm 2 m/S 589 mmHg 91%
21:00 +16°C° 0 mm 2 m/S 589 mmHg 92%
22:00 +15°C° 0 mm 1 m/S 589 mmHg 94%
23:00 +15°C° 0 mm 1 m/S 590 mmHg 95%

8 August, Samstag

Zeit Temperatur Niederschläge Wind Luftdruck Luftfeuchtigkeit
00:00 +15°C° 0 mm 1 m/S 589 mmHg 95%
01:00 +15°C° 0 mm 1 m/S 589 mmHg 95%
02:00 +15°C° 0 mm 1 m/S 589 mmHg 94%
03:00 +14°C° 0 mm 1 m/S 589 mmHg 95%
04:00 +14°C° 0 mm 1 m/S 589 mmHg 95%
05:00 +13°C° 0 mm 1 m/S 589 mmHg 95%
06:00 +15°C° 0 mm 1 m/S 589 mmHg 90%
07:00 +16°C° 0 mm 1 m/S 590 mmHg 85%
08:00 +17°C° 0 mm 2 m/S 591 mmHg 79%
09:00 +19°C° 0 mm 2 m/S 591 mmHg 71%
10:00 +20°C° 0 mm 3 m/S 591 mmHg 62%
11:00 +22°C° 0 mm 4 m/S 592 mmHg 54%
12:00 +22°C° 0.1 mm 4 m/S 591 mmHg 56%
13:00 +22°C° 0.1 mm 5 m/S 591 mmHg 58%
14:00 +22°C° 0.1 mm 6 m/S 590 mmHg 61%
15:00 +21°C° 0.5 mm 6 m/S 590 mmHg 65%
16:00 +20°C° 0.5 mm 6 m/S 590 mmHg 70%
17:00 +19°C° 0.5 mm 5 m/S 589 mmHg 75%
18:00 +18°C° 0.1 mm 4 m/S 589 mmHg 79%
19:00 +16°C° 0.1 mm 3 m/S 590 mmHg 84%
20:00 +15°C° 0.1 mm 2 m/S 590 mmHg 88%
21:00 +15°C° 0 mm 2 m/S 590 mmHg 89%
22:00 +15°C° 0 mm 1 m/S 590 mmHg 90%
23:00 +14°C° 0 mm 1 m/S 590 mmHg 91%

9 August, Sonntag

Zeit Temperatur Niederschläge Wind Luftdruck Luftfeuchtigkeit
00:00 +14°C° 0 mm 1 m/S 589 mmHg 92%
01:00 +14°C° 0 mm 1 m/S 589 mmHg 93%
02:00 +13°C° 0 mm 1 m/S 588 mmHg 94%
03:00 +13°C° 0 mm 1 m/S 588 mmHg 94%
04:00 +13°C° 0 mm 1 m/S 588 mmHg 93%
05:00 +13°C° 0 mm 1 m/S 589 mmHg 93%
06:00 +14°C° 0 mm 1 m/S 589 mmHg 87%
07:00 +15°C° 0 mm 1 m/S 590 mmHg 81%
08:00 +16°C° 0 mm 1 m/S 591 mmHg 75%
09:00 +18°C° 0 mm 2 m/S 591 mmHg 67%
10:00 +19°C° 0 mm 2 m/S 591 mmHg 60%
11:00 +21°C° 0 mm 2 m/S 592 mmHg 53%
12:00 +22°C° 0 mm 3 m/S 592 mmHg 53%
13:00 +22°C° 0 mm 4 m/S 591 mmHg 54%
14:00 +23°C° 0 mm 5 m/S 591 mmHg 54%
15:00 +21°C° 0.6 mm 4 m/S 590 mmHg 64%
16:00 +20°C° 0.6 mm 4 m/S 590 mmHg 73%
17:00 +18°C° 0.6 mm 4 m/S 589 mmHg 83%
18:00 +17°C° 0.4 mm 3 m/S 589 mmHg 85%
19:00 +17°C° 0.4 mm 3 m/S 590 mmHg 88%
20:00 +16°C° 0.4 mm 2 m/S 590 mmHg 90%
21:00 +16°C° 0.5 mm 2 m/S 590 mmHg 91%
22:00 +16°C° 0.5 mm 1 m/S 590 mmHg 92%
23:00 +15°C° 0.5 mm 1 m/S 590 mmHg 93%

10 August, Montag

Zeit Temperatur Niederschläge Wind Luftdruck Luftfeuchtigkeit
00:00 +15°C° 0.1 mm 1 m/S 590 mmHg 93%
01:00 +15°C° 0.1 mm 1 m/S 589 mmHg 94%
02:00 +15°C° 0.1 mm 1 m/S 589 mmHg 94%
03:00 +14°C° 0 mm 1 m/S 589 mmHg 94%
04:00 +14°C° 0 mm 1 m/S 588 mmHg 95%
05:00 +13°C° 0 mm 1 m/S 588 mmHg 95%
06:00 +15°C° 0 mm 1 m/S 589 mmHg 90%
07:00 +16°C° 0 mm 1 m/S 590 mmHg 84%
08:00 +18°C° 0 mm 1 m/S 590 mmHg 78%
09:00 +19°C° 0 mm 2 m/S 591 mmHg 70%
10:00 +20°C° 0 mm 2 m/S 591 mmHg 62%
11:00 +22°C° 0 mm 3 m/S 592 mmHg 54%
12:00 +22°C° 0.1 mm 3 m/S 591 mmHg 56%
13:00 +22°C° 0.1 mm 4 m/S 590 mmHg 57%
14:00 +22°C° 0.1 mm 5 m/S 590 mmHg 59%
15:00 +21°C° 0.5 mm 4 m/S 589 mmHg 65%
16:00 +20°C° 0.5 mm 4 m/S 589 mmHg 71%
17:00 +20°C° 0.5 mm 4 m/S 589 mmHg 78%
18:00 +19°C° 0.7 mm 4 m/S 589 mmHg 82%
19:00 +17°C° 0.7 mm 3 m/S 589 mmHg 86%
20:00 +16°C° 0.7 mm 2 m/S 589 mmHg 90%
21:00 +16°C° 0.2 mm 2 m/S 589 mmHg 91%
22:00 +16°C° 0.2 mm 2 m/S 589 mmHg 93%
23:00 +15°C° 0.2 mm 1 m/S 588 mmHg 94%
Mehr zeigen